GW0697 Weather Reports


time (UTC)temp
C
wind
direction
speed
KPH
gust
KPH
rain 1hr
cm
rain 24hr
cm
rain mn
cm
humidity
%
barometer
mb
20260503195328 15 27 17.7 22.5 0.00 0.00 0.00 33 1013.0
20260503193828 15 352 12.9 25.7 0.00 0.00 0.00 34 1013.3
20260503192328 15 25 4.8 17.7 0.00 0.00 0.00 33 1013.6
20260503190828 15 28 11.3 20.9 0.00 0.00 0.00 35 1013.7
20260503185328 14 5 17.7 27.4 0.00 0.00 0.00 35 1013.8
20260503183828 14 134 8.0 19.3 0.00 0.00 0.00 36 1014.0
20260503182328 13 46 9.7 24.1 0.00 0.00 0.00 36 1014.2
20260503180828 14 163 3.2 19.3 0.00 0.00 0.00 36 1014.3
20260503175328 13 293 1.6 22.5 0.00 0.00 0.00 38 1014.3
20260503173828 13 125 6.4 24.1 0.00 0.00 0.00 37 1014.6
20260503172328 13 51 3.2 29.0 0.00 0.00 0.00 37 1014.6
20260503170828 13 50 11.3 25.7 0.00 0.00 0.00 36 1014.8
20260503150828 11 136 8.0 17.7 0.00 0.00 0.00 43 1016.0
20260503130829 7 42 9.7 20.9 0.00 0.00 0.00 56 1016.5
20260503080829 3 257 1.6 3.2 0.00 0.00 0.00 69 1014.8
20260503072329 3 168 3.2 3.2 0.00 0.00 0.00 66 1014.4
20260503070829 4 243 1.6 4.8 0.00 0.00 0.00 65 1014.3
20260503053830 5 268 1.6 4.8 0.00 0.00 0.00 64 1014.3
20260503052330 5 326 1.6 3.2 0.00 0.00 0.00 64 1014.1
20260503050830 5 25 0.0 3.2 0.00 0.00 0.00 62 1014.4
20260503045330 5 298 1.6 9.7 0.00 0.00 0.00 64 1014.5
20260503043830 5 245 3.2 3.2 0.00 0.00 0.00 68 1014.6
20260503042330 5 96 0.0 1.6 0.00 0.00 0.00 65 1014.6
20260503040830 6 280 0.0 3.2 0.00 0.00 0.00 63 1014.6
20260503035330 6 292 0.0 3.2 0.00 0.00 0.10 63 1014.7
20260503033830 6 159 0.0 1.6 0.00 0.00 0.10 63 1014.7
20260503032330 6 231 1.6 3.2 0.00 0.00 0.10 65 1014.8
20260503030830 6 11 3.2 3.2 0.00 0.00 0.10 64 1014.9
20260503025330 6 335 1.6 16.1 0.00 0.00 0.10 64 1014.9
20260503023830 6 27 3.2 8.0 0.00 0.00 0.10 66 1015.0
20260503022330 6 76 0.0 4.8 0.00 0.00 0.10 68 1015.1
20260503020830 6 240 0.0 1.6 0.00 0.00 0.10 67 1014.9
20260503015330 6 8 6.4 8.0 0.00 0.00 0.10 66 1014.9
20260503013830 7 323 0.0 6.4 0.00 0.00 0.10 65 1014.8
20260503012330 7 19 4.8 6.4 0.00 0.00 0.10 67 1014.6
20260503010830 7 259 0.0 3.2 0.00 0.00 0.10 66 1014.5
20260503005330 7 135 0.0 4.8 0.00 0.00 0.10 66 1014.4
20260503003830 7 277 1.6 4.8 0.00 0.00 0.10 66 1014.1
20260503002330 7 317 0.0 1.6 0.00 0.00 0.10 66 1014.1
20260503000830 7 300 1.6 6.4 0.00 0.00 0.10 64 1014.0
20260502235330 7 167 0.0 14.5 0.00 0.00 0.10 63 1014.0
20260502233830 8 18 3.2 16.1 0.00 0.00 0.10 61 1013.9
20260502232330 8 24 3.2 17.7 0.00 0.00 0.10 61 1013.8
20260502230830 8 18 8.0 19.3 0.00 0.00 0.10 62 1013.8
20260502225330 8 352 8.0 16.1 0.00 0.00 0.10 61 1013.6
20260502223831 8 60 9.7 12.9 0.00 0.00 0.10 58 1013.5
20260502222331 8 36 4.8 11.3 0.00 0.00 0.10 60 1013.3
20260502220831 9 356 3.2 14.5 0.00 0.00 0.10 58 1013.3
20260502215331 9 37 6.4 19.3 0.00 0.00 0.10 56 1013.2
20260502213831 9 34 4.8 17.7 0.00 0.00 0.10 55 1013.2
20260502212331 10 359 6.4 19.3 0.00 0.00 0.10 55 1013.0
20260502210831 10 53 11.3 19.3 0.00 0.00 0.10 59 1012.9
20260502205331 10 8 8.0 17.7 0.00 0.00 0.10 59 1012.7
20260502203831 10 21 6.4 20.9 0.00 0.00 0.10 55 1012.8
20260502202331 11 19 11.3 17.7 0.00 0.00 0.10 51 1012.6
20260502200831 11 216 0.0 9.7 0.00 0.00 0.10 49 1012.6